Total_Precipitation_Accumulation
0.00 0.00 0.00 0.00 0.00 0.00 0.00 0.00 0.00 0.00 0.00 0.00 0.00 0.00 0.00 0.00 0.00 0.00 0.00 0.00 0.00 0.03 0.03 0.01 0.05 0.18 0.32 0.24 0.18 0.13 0.19 0.57 0.82 0.72 0.99 0.90 0.91 0.58 0.53 0.62 0.70 0.62 0.78
0.00 0.00 0.00 0.00 0.00 0.00 0.00 0.00 0.00 0.00 0.00 0.00 0.00 0.00 0.00 0.00 0.00 0.00 0.00 0.00 0.03 0.11 0.17 0.11 0.09 0.15 0.23 0.21 0.13 0.13 0.11 0.11 0.29 0.36 0.37 0.34 0.45 0.43 0.43 0.76 0.74 0.65 0.99
0.00 0.00 0.00 0.00 0.00 0.00 0.00 0.00 0.00 0.00 0.00 0.00 0.00 0.00 0.00 0.00 0.00 0.00 0.00 0.00 0.06 0.15 0.21 0.21 0.17 0.16 0.09 0.06 0.06 0.05 0.03 0.03 0.03 0.05 0.18 0.23 0.19 0.28 0.34 0.60 0.68 0.79 0.96
0.00 0.00 0.00 0.00 0.00 0.00 0.00 0.00 0.00 0.00 0.00 0.00 0.00 0.00 0.00 0.00 0.00 0.00 0.00 0.01 0.06 0.08 0.22 0.37 0.23 0.16 0.12 0.03 0.04 0.02 0.02 0.01 0.03 0.05 0.16 0.23 0.16 0.28 0.31 0.45 0.53 0.78 1.16
0.00 0.00 0.00 0.00 0.00 0.00 0.00 0.00 0.00 0.00 0.00 0.00 0.00 0.00 0.00 0.00 0.00 0.00 0.00 0.00 0.01 0.06 0.15 0.23 0.28 0.18 0.10 0.00 0.00 0.01 0.02 0.02 0.03 0.07 0.37 0.21 0.06 0.22 0.49 0.48 0.43 1.04 1.02
0.00 0.00 0.00 0.00 0.00 0.00 0.00 0.00 0.00 0.00 0.00 0.00 0.00 0.00 0.00 0.00 0.00 0.00 0.00 0.00 0.00 0.01 0.03 0.20 0.24 0.19 0.14 0.00 0.00 0.01 0.02 0.01 0.03 0.33 1.25 0.44 0.49 0.27 0.64 0.66 0.43 0.46 0.40
0.00 0.00 0.00 0.00 0.00 0.00 0.00 0.00 0.00 0.00 0.00 0.00 0.00 0.00 0.00 0.01 0.00 0.00 0.00 0.00 0.00 0.00 0.00 0.02 0.06 0.06 0.14 0.01 0.00 0.03 0.03 0.02 0.14 0.51 0.42 0.24 0.49 0.40 0.41 0.25 0.14 0.10 0.10
0.00 0.00 0.00 0.00 0.00 0.00 0.00 0.00 0.00 0.00 0.00 0.00 0.00 0.00 0.00 0.00 0.01 0.00 0.00 0.00 0.00 0.00 0.00 0.00 0.01 0.01 0.03 0.00 0.03 0.05 0.04 0.02 0.10 0.82 0.32 0.24 0.33 0.31 0.17 0.04 0.04 0.05 0.02
0.00 0.00 0.00 0.00 0.00 0.00 0.00 0.00 0.00 0.00 0.00 0.00 0.00 0.00 0.00 0.00 0.02 0.01 0.00 0.00 0.00 0.00 0.00 0.00 0.00 0.01 0.00 0.04 0.06 0.05 0.12 0.03 0.08 0.20 0.26 0.16 0.22 0.38 0.20 0.04 0.00 0.00 0.00
0.00 0.00 0.00 0.00 0.00 0.00 0.00 0.00 0.00 0.00 0.00 0.00 0.00 0.00 0.00 0.00 0.00 0.00 0.00 0.00 0.00 0.00 0.00 0.00 0.03 0.06 0.07 0.13 0.06 0.08 0.22 0.17 0.13 0.25 0.35 0.31 0.28 0.42 0.39 0.09 0.01 0.00 0.00
0.00 0.00 0.00 0.00 0.00 0.00 0.00 0.00 0.00 0.00 0.00 0.00 0.00 0.01 0.00 0.00 0.00 0.00 0.00 0.00 0.00 0.00 0.00 0.01 0.05 0.12 0.09 0.07 0.10 0.20 0.21 0.12 0.16 0.09 0.25 0.43 0.34 0.38 0.29 0.17 0.04 0.01 0.01
0.00 0.00 0.00 0.00 0.00 0.00 0.00 0.00 0.00 0.00 0.00 0.00 0.00 0.00 0.00 0.00 0.00 0.00 0.00 0.02 0.00 0.01 0.04 0.02 0.00 0.01 0.03 0.02 0.07 0.22 0.12 0.06 0.09 0.05 0.15 0.31 0.49 0.64 0.63 0.40 0.11 0.03 0.01
0.00 0.00 0.00 0.00 0.00 0.00 0.00 0.00 0.00 0.00 0.00 0.00 0.00 0.00 0.00 0.00 0.00 0.00 0.00 0.01 0.00 0.02 0.01 0.01 0.00 0.00 0.02 0.03 0.10 0.21 0.08 0.04 0.07 0.09 0.30 0.20 0.39 0.59 0.55 0.37 0.10 0.03 0.02
0.00 0.00 0.00 0.00 0.00 0.00 0.00 0.00 0.00 0.00 0.00 0.00 0.00 0.00 0.00 0.01 0.01 0.00 0.00 0.00 0.00 0.00 0.00 0.00 0.00 0.00 0.03 0.00 0.02 0.02 0.03 0.03 0.09 0.25 0.29 0.24 0.29 0.50 0.53 0.34 0.19 0.10 0.02
0.00 0.00 0.00 0.00 0.00 0.00 0.00 0.00 0.00 0.00 0.00 0.00 0.00 0.00 0.01 0.00 0.00 0.00 0.00 0.00 0.00 0.00 0.00 0.00 0.00 0.00 0.01 0.03 0.07 0.03 0.01 0.01 0.05 0.16 0.23 0.27 0.20 0.34 0.40 0.24 0.28 0.19 0.05
0.00 0.00 0.00 0.00 0.00 0.00 0.00 0.00 0.00 0.00 0.00 0.00 0.00 0.00 0.00 0.00 0.00 0.00 0.00 0.01 0.03 0.00 0.00 0.01 0.04 0.05 0.18 0.28 0.41 0.26 0.09 0.02 0.04 0.06 0.12 0.23 0.23 0.23 0.26 0.26 0.14 0.18 0.15
0.00 0.00 0.00 0.00 0.00 0.00 0.00 0.00 0.00 0.00 0.00 0.00 0.00 0.00 0.00 0.00 0.01 0.00 0.00 0.00 0.01 0.00 0.01 0.04 0.10 0.09 0.10 0.11 0.39 0.17 0.04 0.01 0.05 0.06 0.07 0.13 0.24 0.27 0.15 0.20 0.31 0.22 0.15
0.00 0.00 0.00 0.00 0.00 0.00 0.02 0.04 0.01 0.00 0.00 0.00 0.00 0.00 0.00 0.01 0.00 0.01 0.00 0.00 0.00 0.05 0.08 0.16 0.07 0.05 0.08 0.08 0.14 0.08 0.01 0.01 0.03 0.03 0.04 0.04 0.05 0.11 0.12 0.04 0.09 0.13 0.13
0.00 0.00 0.00 0.00 0.02 0.05 0.09 0.12 0.17 0.04 0.00 0.00 0.00 0.00 0.01 0.01 0.02 0.01 0.01 0.01 0.00 0.05 0.11 0.06 0.05 0.16 0.13 0.08 0.13 0.13 0.04 0.02 0.04 0.04 0.04 0.08 0.08 0.08 0.11 0.06 0.03 0.04 0.04
0.00 0.00 0.00 0.01 0.03 0.07 0.10 0.14 0.17 0.22 0.08 0.02 0.02 0.01 0.01 0.03 0.04 0.05 0.04 0.02 0.02 0.09 0.11 0.09 0.10 0.17 0.22 0.18 0.22 0.26 0.13 0.07 0.09 0.08 0.07 0.06 0.11 0.18 0.17 0.17 0.05 0.01 0.02
0.00 0.00 0.00 0.00 0.00 0.07 0.07 0.09 0.07 0.04 0.04 0.06 0.10 0.09 0.05 0.05 0.16 0.18 0.19 0.16 0.12 0.10 0.15 0.25 0.17 0.12 0.12 0.21 0.37 0.39 0.29 0.10 0.08 0.09 0.07 0.04 0.03 0.06 0.15 0.19 0.12 0.06 0.01
0.00 0.00 0.00 0.00 0.00 0.01 0.02 0.02 0.04 0.03 0.08 0.18 0.23 0.14 0.04 0.06 0.21 0.20 0.16 0.22 0.25 0.30 0.22 0.31 0.29 0.24 0.13 0.21 0.27 0.25 0.22 0.21 0.08 0.02 0.03 0.03 0.02 0.01 0.03 0.11 0.12 0.10 0.04
0.00 0.00 0.00 0.00 0.00 0.00 0.02 0.07 0.10 0.15 0.23 0.26 0.19 0.21 0.22 0.26 0.25 0.36 0.25 0.26 0.29 0.39 0.37 0.40 0.37 0.31 0.23 0.24 0.18 0.12 0.05 0.12 0.07 0.05 0.05 0.03 0.02 0.02 0.01 0.04 0.07 0.08 0.05
0.00 0.00 0.00 0.00 0.01 0.02 0.06 0.09 0.11 0.04 0.05 0.06 0.08 0.12 0.25 0.32 0.44 0.55 0.56 0.53 0.53 0.56 0.54 0.48 0.53 0.48 0.45 0.30 0.37 0.22 0.12 0.09 0.10 0.09 0.06 0.09 0.07 0.03 0.02 0.02 0.03 0.06 0.05
0.00 0.00 0.00 0.00 0.01 0.03 0.05 0.09 0.12 0.15 0.17 0.09 0.08 0.05 0.09 0.11 0.21 0.28 0.46 0.54 0.61 0.57 0.46 0.59 0.52 0.50 0.48 0.47 0.40 0.33 0.20 0.17 0.21 0.22 0.14 0.07 0.06 0.04 0.02 0.02 0.02 0.03 0.03
0.00 0.00 0.01 0.03 0.04 0.04 0.07 0.11 0.12 0.15 0.17 0.12 0.15 0.23 0.30 0.26 0.25 0.35 0.38 0.37 0.43 0.46 0.42 0.50 0.47 0.40 0.59 0.55 0.42 0.29 0.14 0.08 0.07 0.11 0.15 0.15 0.09 0.07 0.05 0.02 0.01 0.02 0.02